Little Rock AFB, AR

2:40 PM CST on November 19, 2017 (GMT -0600)
Little Rock Air Force Base

Weather History for KLRF - September, 2013

Change the Weather History Date:

Friday, September 27, 2013

  Actual Average Record
Temperature  
Mean Temperature 74 °F -  
Max Temperature 86 °F 79 °F 98 °F (1998)
Min Temperature 62 °F 56 °F 40 °F (1985)
Cooling Degree Days 8    
Growing Degree Days 24 (Base 50)    
Moisture  
Dew Point 65 °F    
Average Humidity 82    
Maximum Humidity 100    
Minimum Humidity 51    
Precipitation  
Precipitation 0.00 in - - ()
Sea Level Pressure  
Sea Level Pressure 30.02 in    
Wind  
Wind Speed 1 mph (East)    
Max Wind Speed 9 mph    
Max Gust Speed -    
Visibility 8 miles    
Events      
Averages and records for this station are not official NWS values.
T = Trace of Precipitation, MM = Missing Value Source: NWS Daily Summary

Daily Weather History Graph

Daily Weather History Graph

Search for Another Location

Airport or City:

Trip Planner

Search our weather history database for the weather conditions in past years. The results will help you decide how hot, cold, wet, or windy it might be!

Date:

Astronomy

Sep. 27, 2013 Rise Set
Actual Time 7:00 AM CDT 6:57 PM CDT
Civil Twilight 6:35 AM CDT 7:23 PM CDT
Nautical Twilight 6:05 AM CDT 7:52 PM CDT
Astronomical Twilight 5:36 AM CDT 8:21 PM CDT
Moon 12:09 AM CDT (9/27) 2:24 PM CDT (9/27)
Length of Visible Light 12h 47m
Length of Day
11h 57m
Last Quarter, 45% of the Moon is Illuminated
Sep 27
Last Quarter
Oct 4
New
Oct 11
First Quarter
Oct 18
Full
Oct 26
Last Quarter

Hourly Weather History & Observations

Time (CDT) Temp. Heat Index Dew Point Humidity Pressure Visibility Wind Dir Wind Speed Gust Speed Precip Events Conditions
12:58 AM 65.3 °F - 63.1 °F 93% 29.97 in 10.0 mi Calm Calm - N/A   Partly Cloudy
1:58 AM 65.1 °F - 61.9 °F 89% 29.97 in 10.0 mi Calm Calm - N/A   Clear
2:58 AM 63.0 °F - 61.2 °F 94% 29.99 in 10.0 mi Calm Calm - N/A   Clear
3:58 AM 62.1 °F - 60.6 °F 95% 29.99 in 10.0 mi Calm Calm - N/A   Partly Cloudy
4:58 AM 62.6 °F - 61.3 °F 96% 30.00 in 10.0 mi Calm Calm - N/A   Mostly Cloudy
5:58 AM 63.5 °F - 62.2 °F 96% 30.02 in 10.0 mi ENE 2.3 mph - N/A   Partly Cloudy
6:58 AM 62.4 °F - 61.7 °F 97% 30.04 in 10.0 mi Calm Calm - N/A   Clear
7:37 AM 62.6 °F - 62.6 °F 100% 30.04 in 4.0 mi Calm Calm - N/A   Clear
7:38 AM 62.6 °F - 62.6 °F 100% 30.04 in 4.0 mi Calm Calm - N/A   Partly Cloudy
7:48 AM 64.4 °F - 62.6 °F 94% 30.04 in 10.0 mi Calm Calm - N/A   Mostly Cloudy
7:58 AM 64.0 °F - 62.6 °F 95% 30.04 in 10.0 mi Calm Calm - N/A   Mostly Cloudy
7:59 AM 64.4 °F - 62.6 °F 94% 30.04 in 2.0 mi Calm Calm - N/A   Scattered Clouds
8:03 AM 64.4 °F - 62.6 °F 94% 30.04 in 2.0 mi Calm Calm - N/A   Scattered Clouds
8:55 AM 68.0 °F - 68.0 °F 100% 30.06 in 2.0 mi Variable 2.3 mph - N/A   Scattered Clouds
9:04 AM 69.8 °F - 68.0 °F 94% 30.05 in 3.0 mi East 4.6 mph - N/A   Mostly Cloudy
9:27 AM 73.4 °F - 69.8 °F 88% 30.05 in 5.0 mi Variable 3.5 mph - N/A   Overcast
9:43 AM 73.4 °F - 68.0 °F 83% 30.06 in 5.0 mi SE 5.8 mph - N/A   Mostly Cloudy
9:53 AM 75.2 °F - 68.0 °F 78% 30.06 in 10.0 mi SE 2.3 mph - N/A   Scattered Clouds
9:58 AM 74.7 °F - 68.2 °F 80% 30.06 in 10.0 mi East 2.3 mph - N/A   Scattered Clouds
10:58 AM 78.1 °F - 67.8 °F 71% 30.06 in 10.0 mi ESE 4.6 mph - N/A   Clear
11:58 AM 82.4 °F 85.4 °F 68.0 °F 62% 30.04 in 10.0 mi Variable 3.5 mph - N/A   Partly Cloudy
12:58 PM 84.0 °F 86.0 °F 65.5 °F 54% 30.03 in 10.0 mi Variable 3.5 mph - N/A   Clear
1:58 PM 85.6 °F 87.6 °F 65.8 °F 51% 30.00 in 10.0 mi East 4.6 mph - N/A   Scattered Clouds
2:58 PM 85.8 °F 88.2 °F 66.4 °F 52% 29.99 in 10.0 mi ESE 9.2 mph - N/A   Mostly Cloudy
3:58 PM 85.5 °F 87.4 °F 65.7 °F 51% 29.97 in 10.0 mi Variable 5.8 mph - N/A   Partly Cloudy
4:58 PM 84.9 °F 86.8 °F 65.3 °F 52% 29.97 in 10.0 mi East 9.2 mph - N/A   Scattered Clouds
5:58 PM 83.1 °F 85.4 °F 66.4 °F 57% 29.97 in 10.0 mi ESE 2.3 mph - N/A   Partly Cloudy
6:58 PM 79.5 °F - 65.8 °F 63% 29.97 in 10.0 mi East 3.5 mph - N/A   Clear
7:58 PM 72.9 °F - 66.4 °F 80% 29.99 in 10.0 mi East 1.2 mph - N/A   Partly Cloudy
8:58 PM 70.5 °F - 65.8 °F 85% 29.99 in 10.0 mi Calm Calm - N/A   Clear
9:58 PM 70.9 °F - 64.9 °F 81% 30.00 in 10.0 mi ENE 2.3 mph - N/A   Clear
10:58 PM 67.3 °F - 64.4 °F 90% 30.00 in 10.0 mi Calm Calm - N/A   Clear
11:58 PM 67.8 °F - 63.9 °F 87% 30.00 in 10.0 mi East 2.3 mph - N/A   Clear